When you browse on this site, cookies collect data to enhance your experience and personalize the content and advertising you see.
Visit our Privacy Policy to learn more. By continuing to use the site, you agree to this use of cookies and data.

Hourly Weather Bovec

Today, 2 July, Thursday

Time Temperature Precipitation Wind Pressure Humidity
00:00 +18°C° 0.1 mm 1 mps 690 mmHg 87%
01:00 +16°C° 0 mm 1 mps 690 mmHg 84%
02:00 +16°C° 0 mm 1 mps 690 mmHg 85%
03:00 +15°C° 0 mm 1 mps 689 mmHg 85%
04:00 +15°C° 0 mm 1 mps 689 mmHg 86%
05:00 +16°C° 0 mm 1 mps 690 mmHg 83%
06:00 +19°C° 0 mm 1 mps 690 mmHg 79%
07:00 +19°C° 0 mm 0 mps 691 mmHg 76%
08:00 +21°C° 0.1 mm 0 mps 691 mmHg 69%
09:00 +25°C° 0.1 mm 1 mps 691 mmHg 62%
10:00 +26°C° 0.1 mm 1 mps 691 mmHg 55%
11:00 +27°C° 0.5 mm 1 mps 691 mmHg 55%
12:00 +27°C° 0.5 mm 1 mps 692 mmHg 55%
13:00 +27°C° 0 mm 1 mps 692 mmHg 58%
14:00 +26°C° 1.2 mm 1 mps 691 mmHg 64%
15:00 +25°C° 1.2 mm 1 mps 691 mmHg 69%
16:00 +25°C° 1.2 mm 1 mps 690 mmHg 74%
17:00 +24°C° 1.3 mm 1 mps 690 mmHg 79%
18:00 +20°C° 1.3 mm 0 mps 690 mmHg 84%
19:00 +19°C° 1.3 mm 0 mps 690 mmHg 89%
20:00 +18°C° 1 mm 0 mps 690 mmHg 90%
21:00 +19°C° 1 mm 1 mps 690 mmHg 91%
22:00 +18°C° 1 mm 1 mps 690 mmHg 92%
23:00 +18°C° 0.9 mm 1 mps 690 mmHg 92%

Tomorrow, 3 July, Friday

Time Temperature Precipitation Wind Pressure Humidity
00:00 +16°C° 0.9 mm 1 mps 690 mmHg 93%
01:00 +16°C° 0.9 mm 1 mps 690 mmHg 94%
02:00 +16°C° 0.7 mm 1 mps 690 mmHg 95%
03:00 +16°C° 0.7 mm 2 mps 690 mmHg 95%
04:00 +16°C° 0.7 mm 2 mps 690 mmHg 95%
05:00 +16°C° 1.6 mm 2 mps 690 mmHg 95%
06:00 +16°C° 1.6 mm 2 mps 691 mmHg 96%
07:00 +16°C° 1.6 mm 2 mps 691 mmHg 96%
08:00 +16°C° 1.7 mm 2 mps 691 mmHg 96%
09:00 +15°C° 1.7 mm 2 mps 692 mmHg 95%
10:00 +15°C° 1.7 mm 2 mps 692 mmHg 94%
11:00 +15°C° 0.7 mm 2 mps 692 mmHg 93%
12:00 +16°C° 0.7 mm 2 mps 692 mmHg 92%
13:00 +16°C° 0.7 mm 2 mps 692 mmHg 91%
14:00 +16°C° 0.2 mm 2 mps 692 mmHg 90%
15:00 +18°C° 0.2 mm 1 mps 692 mmHg 89%
16:00 +18°C° 0.2 mm 1 mps 692 mmHg 88%
17:00 +18°C° 0 mm 1 mps 692 mmHg 87%
18:00 +18°C° 0 mm 1 mps 692 mmHg 86%
19:00 +18°C° 0 mm 1 mps 693 mmHg 86%
20:00 +16°C° 0 mm 1 mps 693 mmHg 86%
21:00 +15°C° 0 mm 1 mps 693 mmHg 87%
22:00 +14°C° 0 mm 2 mps 693 mmHg 88%
23:00 +14°C° 0 mm 2 mps 693 mmHg 88%

Day after tomorrow, 4 July, Saturday

Time Temperature Precipitation Wind Pressure Humidity
00:00 +14°C° 0 mm 2 mps 693 mmHg 89%
01:00 +14°C° 0 mm 2 mps 693 mmHg 89%
02:00 +14°C° 0 mm 2 mps 693 mmHg 89%
03:00 +14°C° 0 mm 2 mps 693 mmHg 89%
04:00 +13°C° 0 mm 2 mps 693 mmHg 89%
05:00 +15°C° 0 mm 2 mps 693 mmHg 86%
06:00 +16°C° 0 mm 1 mps 694 mmHg 82%
07:00 +18°C° 0 mm 1 mps 694 mmHg 79%
08:00 +20°C° 0 mm 1 mps 694 mmHg 70%
09:00 +22°C° 0 mm 1 mps 695 mmHg 60%
10:00 +24°C° 0 mm 1 mps 695 mmHg 51%
11:00 +24°C° 0.2 mm 1 mps 695 mmHg 52%
12:00 +25°C° 0.2 mm 1 mps 695 mmHg 53%
13:00 +25°C° 0.2 mm 1 mps 695 mmHg 54%
14:00 +25°C° 0.2 mm 1 mps 694 mmHg 57%
15:00 +24°C° 0.2 mm 1 mps 694 mmHg 61%
16:00 +24°C° 0.2 mm 1 mps 694 mmHg 64%
17:00 +23°C° 0.2 mm 1 mps 694 mmHg 70%
18:00 +20°C° 0.2 mm 0 mps 694 mmHg 76%
19:00 +19°C° 0.2 mm 0 mps 693 mmHg 82%
20:00 +19°C° 0 mm 1 mps 694 mmHg 84%
21:00 +18°C° 0 mm 1 mps 694 mmHg 85%
22:00 +15°C° 0 mm 1 mps 694 mmHg 87%
23:00 +15°C° 0 mm 1 mps 694 mmHg 87%

5 July, Sunday

Time Temperature Precipitation Wind Pressure Humidity
00:00 +14°C° 0 mm 1 mps 694 mmHg 87%
01:00 +14°C° 0 mm 1 mps 694 mmHg 87%
02:00 +14°C° 0 mm 1 mps 694 mmHg 87%
03:00 +14°C° 0 mm 1 mps 694 mmHg 87%
04:00 +13°C° 0 mm 1 mps 694 mmHg 87%
05:00 +15°C° 0 mm 1 mps 694 mmHg 83%
06:00 +16°C° 0 mm 1 mps 694 mmHg 79%
07:00 +19°C° 0 mm 1 mps 694 mmHg 75%
08:00 +21°C° 0 mm 1 mps 695 mmHg 67%
09:00 +23°C° 0 mm 1 mps 695 mmHg 59%
10:00 +25°C° 0 mm 1 mps 695 mmHg 51%
11:00 +26°C° 0 mm 1 mps 695 mmHg 49%
12:00 +27°C° 0 mm 1 mps 695 mmHg 47%
13:00 +27°C° 0 mm 1 mps 695 mmHg 46%
14:00 +27°C° 0 mm 1 mps 695 mmHg 48%
15:00 +27°C° 0 mm 1 mps 694 mmHg 50%
16:00 +27°C° 0 mm 1 mps 694 mmHg 53%
17:00 +25°C° 0.1 mm 1 mps 694 mmHg 62%
18:00 +24°C° 0.1 mm 1 mps 693 mmHg 72%
19:00 +20°C° 0.1 mm 0 mps 693 mmHg 81%
20:00 +21°C° 0 mm 1 mps 693 mmHg 83%
21:00 +20°C° 0 mm 1 mps 693 mmHg 84%
22:00 +18°C° 0 mm 1 mps 693 mmHg 85%
23:00 +18°C° 0 mm 1 mps 693 mmHg 85%

6 July, Monday

Time Temperature Precipitation Wind Pressure Humidity
00:00 +18°C° 0 mm 1 mps 693 mmHg 85%
01:00 +18°C° 0 mm 1 mps 693 mmHg 84%
02:00 +16°C° 0 mm 1 mps 692 mmHg 85%
03:00 +16°C° 0 mm 1 mps 692 mmHg 85%
04:00 +16°C° 0 mm 1 mps 692 mmHg 85%
05:00 +18°C° 0 mm 1 mps 692 mmHg 82%
06:00 +20°C° 0 mm 1 mps 692 mmHg 79%
07:00 +22°C° 0 mm 1 mps 692 mmHg 76%
08:00 +23°C° 0 mm 1 mps 692 mmHg 68%
09:00 +25°C° 0 mm 1 mps 693 mmHg 61%
10:00 +27°C° 0 mm 1 mps 693 mmHg 54%
11:00 +27°C° 0 mm 1 mps 692 mmHg 55%
12:00 +27°C° 0 mm 1 mps 692 mmHg 56%
13:00 +27°C° 0 mm 1 mps 691 mmHg 57%
14:00 +26°C° 0.1 mm 1 mps 691 mmHg 60%
15:00 +26°C° 0.1 mm 1 mps 690 mmHg 62%
16:00 +26°C° 0.1 mm 1 mps 690 mmHg 65%
17:00 +25°C° 0.1 mm 1 mps 690 mmHg 70%
18:00 +24°C° 0.1 mm 1 mps 690 mmHg 74%
19:00 +23°C° 0.1 mm 1 mps 690 mmHg 79%
20:00 +22°C° 0.5 mm 1 mps 690 mmHg 82%
21:00 +20°C° 0.5 mm 1 mps 689 mmHg 86%
22:00 +19°C° 0.5 mm 1 mps 689 mmHg 89%
23:00 +17°C° 2.2 mm 2 mps 690 mmHg 91%

7 July, Tuesday

Time Temperature Precipitation Wind Pressure Humidity
00:00 +17°C° 2.2 mm 2 mps 690 mmHg 93%
01:00 +16°C° 2.2 mm 3 mps 690 mmHg 95%
02:00 +13°C° 2.3 mm 3 mps 690 mmHg 95%
03:00 +12°C° 2.3 mm 4 mps 691 mmHg 94%
04:00 +10°C° 2.3 mm 4 mps 691 mmHg 94%
05:00 +8°C° 3.7 mm 4 mps 691 mmHg 94%
06:00 +7°C° 3.7 mm 4 mps 691 mmHg 95%
07:00 +8°C° 3.7 mm 3 mps 692 mmHg 95%
08:00 +9°C° 2.3 mm 3 mps 692 mmHg 92%
09:00 +10°C° 2.3 mm 3 mps 693 mmHg 88%
10:00 +12°C° 2.3 mm 2 mps 693 mmHg 84%
11:00 +15°C° 0 mm 2 mps 693 mmHg 72%
12:00 +17°C° 0 mm 2 mps 694 mmHg 59%
13:00 +20°C° 0 mm 2 mps 694 mmHg 46%
14:00 +20°C° 0 mm 2 mps 694 mmHg 48%
15:00 +21°C° 0 mm 1 mps 694 mmHg 50%
16:00 +21°C° 0 mm 1 mps 694 mmHg 52%
17:00 +20°C° 0 mm 1 mps 694 mmHg 60%
18:00 +18°C° 0 mm 1 mps 694 mmHg 68%
19:00 +16°C° 0 mm 1 mps 694 mmHg 77%
20:00 +15°C° 0 mm 1 mps 694 mmHg 78%
21:00 +13°C° 0 mm 1 mps 694 mmHg 80%
22:00 +11°C° 0 mm 1 mps 694 mmHg 81%
23:00 +11°C° 0 mm 1 mps 694 mmHg 81%
Show more